CAPE
848 1223 1319 1203 1091 1136 1513 1558 1530 1549 1235 1081 946 1029 1060 1198 1284 1146 1045 1021 772 473 201 92 60 62 42 18 86 349 531 247 41 37 6 0 32 194 437 250 333 336 313
734 1300 1368 1424 1373 1439 1462 1422 1397 1359 1336 1284 1025 746 591 574 755 955 665 611 512 311 200 192 165 76 57 28 2 12 176 71 16 46 28 0 108 373 437 287 288 350 287
808 1186 1364 1472 1350 1340 1293 1128 1060 1057 1220 1314 1284 1132 582 507 370 621 591 591 396 276 381 333 125 57 97 134 159 125 20 0 0 0 1 0 44 417 433 261 165 106 71
875 940 1080 1312 1287 1139 1004 1036 963 943 1002 1178 1095 1393 999 738 552 560 616 619 508 510 725 478 201 157 195 232 176 111 109 0 6 0 47 60 4 363 237 308 297 171 150
815 1053 883 776 787 878 952 866 903 914 805 896 990 1061 1297 1008 864 940 983 984 836 669 763 598 361 274 240 321 177 107 21 0 0 0 0 55 20 68 390 499 307 165 143
872 1012 1183 1182 1287 1145 761 629 876 898 845 751 676 784 869 1253 1178 1020 915 706 665 550 755 720 569 179 42 131 169 86 44 3 0 0 0 0 29 59 158 341 106 182 155
659 967 1150 1152 1068 1030 1065 1057 914 927 1007 889 839 683 748 1113 1236 1083 625 527 554 446 704 579 336 244 0 0 169 51 0 0 0 0 0 0 1 211 201 207 149 300 320
40 191 384 572 719 815 860 897 988 1014 970 839 917 996 893 932 959 896 618 526 480 404 608 725 620 336 7 0 56 102 13 0 0 5 7 19 23 330 421 360 262 207 113
0 0 0 4 99 257 501 647 757 819 914 1057 791 759 940 958 889 864 688 606 564 436 328 440 488 238 5 0 0 0 0 0 0 48 35 90 227 282 281 173 201 111 249
0 0 0 0 0 0 15 84 220 515 703 768 829 871 691 781 938 876 726 668 650 493 332 271 253 169 2 0 0 0 0 0 0 35 36 33 117 224 222 189 183 235 124
0 0 0 0 0 0 0 0 0 0 0 5 279 577 569 514 601 645 694 619 696 639 414 348 242 261 25 0 0 0 0 0 0 4 25 58 83 53 87 203 222 65 260
0 0 0 0 0 0 0 0 0 0 0 0 0 0 224 290 258 343 474 599 602 629 460 356 353 287 150 0 0 0 0 0 0 0 11 98 122 222 88 136 141 171 120
0 0 0 0 0 0 0 0 0 0 0 0 0 0 0 8 128 131 199 359 437 548 503 401 360 356 281 13 0 0 0 0 0 0 19 65 135 194 89 55 115 70 45
0 0 0 0 0 0 0 0 0 0 0 0 0 0 0 0 13 78 93 159 268 298 465 440 387 346 318 170 8 2 0 0 0 0 7 47 31 67 26 31 36 37 48
0 0 0 0 0 0 0 0 0 0 0 0 0 0 0 0 0 46 123 176 288 317 335 237 300 331 301 282 133 1 1 0 0 9 2 24 40 61 53 66 17 22 22
0 0 0 0 0 0 0 0 0 0 0 0 0 0 0 0 0 0 73 132 276 368 378 324 259 161 204 215 187 63 0 2 0 0 0 0 13 26 79 5 15 32 27
0 0 0 0 0 0 0 0 0 0 0 0 0 0 0 0 0 0 29 270 309 274 342 306 191 107 101 96 158 133 22 0 0 1 0 0 0 0 25 96 65 205 175
0 0 0 0 0 0 0 0 0 0 0 0 0 0 0 0 0 0 0 0 0 57 156 202 199 191 61 47 115 105 63 8 0 0 0 0 0 0 7 25 11 4 296
0 0 0 0 0 0 0 0 0 0 0 0 0 0 0 0 0 0 0 0 0 0 0 13 62 106 105 46 29 7 4 0 0 0 0 0 0 0 0 19 23 0 5
0 0 0 0 0 0 0 0 0 0 0 0 0 0 0 0 0 0 0 0 0 0 0 0 0 0 39 79 68 28 0 0 0 0 0 0 0 0 4 4 6 5 1
0 0 0 0 0 0 0 0 0 0 0 0 0 0 0 0 0 0 0 0 0 0 0 0 0 0 0 0 0 0 0 0 0 0 0 0 0 0 11 12 0 0 0
0 0 0 0 0 0 0 4 3 0 0 0 0 0 0 0 0 0 0 0 0 0 0 0 0 0 0 0 0 0 0 0 0 0 1 3 1 0 0 0 0 0 0
0 0 0 0 0 0 0 0 0 0 0 0 0 0 0 0 0 0 0 0 0 0 0 0 0 0 0 0 0 0 0 0 0 0 0 0 4 1 0 1 0 0 0
0 0 0 0 0 0 0 0 0 5 8 5 0 0 0 0 0 0 0 0 0 0 0 0 0 0 0 0 0 0 5 0 0 0 0 0 2 0 0 0 0 0 1
0 0 0 0 0 0 0 0 0 0 0 2 3 0 0 0 0 0 0 0 0 0 0 0 0 0 0 0 0 0 0 0 4 17 6 2 0 0 0 0 0 0 0
0 0 0 0 0 0 0 2 1 0 0 0 1 4 0 0 0 0 1 0 0 0 0 0 0 0 0 0 0 0 0 2 3 4 4 1 1 0 0 0 2 0 1
CIN
-44 -5 -1 -6 -15 -15 0 0 0 0 -7 -15 -20 -16 -8 0 0 0 0 0 -2 -14 -46 -87 -101 -108 -138 -209 -111 -17 -7 -71 -211 -228 -162 0 -190 -99 -37 -66 -48 -45 -45
-78 -3 -1 -1 -5 -1 0 -3 -5 -4 -1 0 -9 -23 -39 -36 -17 0 -11 -3 -9 -21 -42 -38 -41 -96 -131 -170 -252 -265 -97 -181 -260 -227 -249 0 -144 -53 -38 -63 -62 -52 -64
-59 -5 -1 -2 -6 -6 -6 -13 -17 -18 -8 -1 0 0 -29 -37 -54 -22 -10 -4 -12 -18 -3 -3 -53 -122 -104 -89 -97 -134 -147 0 -52 0 -24 0 -192 -47 -39 -86 -111 -152 -170
-49 -33 -13 -5 -7 -14 -20 -17 -23 -22 -16 -5 -6 0 -1 -7 -26 -20 -11 -3 -2 -2 0 -1 -22 -64 -68 -61 -105 -156 -174 0 -165 0 -244 -205 -163 -63 -90 -62 -80 -133 -141
-64 -30 -42 -47 -38 -28 -23 -30 -28 -26 -30 -24 -17 -8 0 0 0 0 0 -1 -1 -3 0 0 -5 -26 -50 -44 -114 -170 -51 0 0 0 0 -202 -250 -203 -49 -26 -67 -124 -141
-53 -31 -21 -20 -16 -20 -41 -49 -32 -34 -32 -33 -33 -24 -13 0 0 0 -1 -4 -5 -5 -2 0 -1 -48 -183 -117 -117 -185 -251 -6 0 0 0 0 -236 -201 -120 -49 -156 -103 -129
-73 -42 -28 -23 -24 -24 -17 -17 -23 -24 -24 -31 -25 -29 -20 -3 0 -1 -6 -7 -8 -11 -1 -1 -4 -16 0 0 -112 -199 0 0 0 0 0 0 -17 -89 -89 -78 -102 -52 -57
-167 -135 -88 -64 -51 -43 -34 -28 -15 -9 -12 -23 -20 -10 -9 -5 -5 -5 -10 -10 -9 -12 -3 0 0 -4 -80 0 -187 -129 -24 0 0 -141 -124 -179 -186 -31 -24 -29 -58 -56 -110
0 0 0 -54 -168 -91 -62 -47 -35 -26 -15 -6 -22 -23 -7 -5 -6 -5 -8 -11 -8 -12 -11 -5 -3 -16 -72 0 0 0 0 0 0 -187 -202 -123 -37 -27 -42 -85 -70 -106 -55
0 0 0 0 0 0 -235 -150 -89 -38 -22 -18 -16 -13 -22 -11 -4 -6 -8 -7 -7 -12 -16 -14 -11 -20 -91 0 0 0 0 0 0 -159 -176 -170 -55 -20 -60 -97 -105 -74 -94
0 0 0 0 0 0 0 0 0 0 0 -47 -71 -25 -25 -39 -24 -17 -15 -15 -8 -8 -13 -14 -17 -10 -128 0 0 0 0 0 0 -23 -145 -116 -56 -81 -92 -51 -79 -103 -64
0 0 0 0 0 0 0 0 0 0 0 0 0 0 -69 -53 -63 -49 -27 -17 -13 -9 -13 -16 -13 -10 -20 0 0 0 0 0 0 0 -60 -49 -39 -27 -93 -82 -77 -56 -89
0 0 0 0 0 0 0 0 0 0 0 0 0 0 0 -23 -98 -90 -70 -49 -31 -17 -14 -15 -14 -8 -13 -104 0 0 0 0 0 0 -50 -75 -16 -25 -100 -47 -93 -122 -36
0 0 0 0 0 0 0 0 0 0 0 0 0 0 0 0 -183 -104 -98 -60 -56 -46 -28 -23 -23 -25 -20 -31 -140 -134 0 0 0 -3 -31 -78 -44 -39 -15 -29 -36 -34 -30
0 0 0 0 0 0 0 0 0 0 0 0 0 0 0 0 0 -141 -58 -42 -37 -43 -40 -39 -28 -27 -29 -25 -40 -33 -95 -9 0 -96 -67 -41 -61 -39 -18 -80 -33 -36 -37
0 0 0 0 0 0 0 0 0 0 0 0 0 0 0 0 0 0 -94 -61 -36 -38 -34 -34 -32 -32 -26 -31 -32 -51 -11 -55 0 0 0 0 -53 -29 -36 -10 -18 -24 -21
0 0 0 0 0 0 0 0 0 0 0 0 0 0 0 0 0 0 -203 -26 -29 -37 -32 -34 -34 -44 -45 -39 -27 -35 -59 0 0 -25 0 0 -1 -2 -32 -17 -39 -10 -7
0 0 0 0 0 0 0 0 0 0 0 0 0 0 0 0 0 0 0 0 0 -141 -44 -22 -23 -25 -55 -61 -44 -52 -54 -61 0 -47 0 0 0 0 -87 -36 -24 -5 -1
0 0 0 0 0 0 0 0 0 0 0 0 0 0 0 0 0 0 0 0 0 0 0 -82 -55 -16 -16 -47 -75 -38 -57 0 0 0 0 0 0 0 0 -65 -78 0 -5
0 0 0 0 0 0 0 0 0 0 0 0 0 0 0 0 0 0 0 0 0 0 0 0 0 0 -76 -13 -19 -39 0 0 0 0 0 0 0 0 -69 -85 -69 -53 -15
0 0 0 0 0 0 0 0 0 0 0 0 0 0 0 0 0 0 0 0 0 0 0 0 0 0 0 0 0 0 0 0 0 -12 -20 0 0 -29 -91 -80 0 0 0
0 0 0 0 0 0 0 0 0 0 0 0 0 0 0 0 0 0 0 0 0 0 0 0 0 0 0 0 0 0 0 0 0 0 -43 -56 -88 0 0 0 0 0 0
0 0 0 0 0 0 0 0 0 0 0 0 0 0 0 0 0 0 0 0 0 0 0 0 0 0 0 0 0 0 0 0 0 0 0 0 -56 -38 -46 -70 0 0 0
0 0 0 0 0 0 0 0 0 0 0 0 0 0 0 0 0 0 0 0 0 0 0 0 0 0 0 0 0 0 -9 -2 0 0 0 0 0 -16 0 0 0 0 -106
0 0 0 0 0 0 0 0 0 0 0 0 0 0 0 0 0 0 0 0 0 0 0 0 0 0 0 0 0 0 0 0 -12 -1 -4 -10 0 0 0 -10 -5 0 -2
0 0 0 0 0 0 0 0 0 0 0 0 0 0 0 0 0 0 -12 -6 0 0 0 0 0 0 0 0 0 0 0 0 -3 -6 -6 -4 -2 0 0 0 -14 -8 -63
Wind_Speed
11 12 11 11 11 12 12 12 11 10 10 11 11 12 12 13 12 11 10 10 10 11 12 13 15 15 14 11 10 9 8 8 8 8 8 5 4 4 10 19 19 20 22
12 11 11 10 10 11 10 11 11 10 10 10 10 11 11 11 12 11 10 10 10 11 12 13 14 14 14 12 11 10 8 8 8 8 7 6 4 4 8 19 19 19 18
13 11 10 10 9 9 9 9 9 9 9 9 9 9 10 10 11 11 11 10 10 11 11 12 13 14 13 12 11 10 9 9 8 8 8 7 5 6 7 15 16 18 19
12 11 10 9 9 8 8 8 8 8 9 9 9 9 9 9 10 10 10 10 10 10 10 11 11 12 12 12 11 10 9 9 8 8 8 6 5 6 7 13 16 16 17
12 10 10 9 9 8 8 8 9 8 9 9 9 9 8 9 9 9 10 10 10 10 10 10 10 11 11 11 11 10 10 9 9 8 8 6 5 5 6 8 10 12 13
10 9 9 8 8 8 8 8 9 9 10 10 10 9 8 8 9 9 10 11 9 9 9 9 9 11 12 10 9 10 10 10 12 12 8 7 7 5 5 6 7 9 11
9 9 9 8 8 8 9 10 10 10 11 11 11 10 9 9 9 9 10 11 10 9 9 9 9 11 12 12 10 9 9 11 12 8 6 6 7 5 5 6 7 8 10
9 8 8 8 8 9 9 11 12 12 12 13 13 13 12 11 11 11 11 12 11 10 9 8 9 11 12 12 12 10 10 11 12 7 7 9 5 5 3 6 8 7 8
9 9 9 9 9 9 10 11 12 14 14 15 15 15 14 14 14 14 13 11 11 10 10 10 10 10 11 12 13 12 11 12 11 6 9 10 8 2 1 4 6 6 7
9 9 9 10 10 10 11 11 12 14 15 16 17 17 17 16 16 15 15 14 12 10 10 11 11 10 11 11 11 12 13 13 12 8 8 10 9 4 3 3 4 5 6
9 9 9 10 10 10 11 12 14 15 16 17 18 19 19 18 17 17 16 14 13 13 12 11 11 10 11 11 11 11 12 13 13 11 11 11 8 6 6 6 6 6 7
8 9 9 10 11 10 11 11 13 16 17 18 19 19 19 19 18 17 17 16 14 13 14 13 12 11 12 12 13 12 12 13 13 13 13 11 8 8 10 12 13 12 11
9 12 11 11 12 11 11 11 13 16 16 17 19 19 19 19 20 20 19 18 17 17 16 15 15 14 13 13 14 13 13 13 13 14 15 15 13 10 10 11 13 16 16
7 10 15 15 13 11 13 12 13 15 17 17 18 18 18 18 19 20 21 20 19 17 16 15 15 15 16 16 16 17 16 15 14 14 17 17 17 16 14 13 15 15 17
25 21 18 16 12 9 10 13 13 12 13 14 17 17 17 17 18 18 20 20 21 20 19 18 16 17 17 18 18 19 20 19 18 16 17 17 17 19 17 15 16 17 18
35 27 26 20 14 13 15 17 16 14 13 13 13 13 14 16 17 19 19 18 20 21 22 21 20 20 19 19 20 20 21 22 22 20 22 20 19 18 19 16 17 18 20
33 34 35 21 14 13 15 18 19 18 18 17 17 17 15 14 13 13 15 17 19 19 20 21 22 23 23 21 21 21 22 23 24 23 22 24 24 21 17 17 17 18 19
31 30 31 31 32 25 21 20 19 20 21 21 21 20 20 19 16 15 14 13 16 19 20 21 23 25 26 24 24 23 24 24 26 26 25 26 25 25 20 17 17 18 20
31 30 31 30 30 30 29 24 22 22 23 23 24 24 24 23 21 18 17 16 15 16 19 21 22 23 25 26 27 27 26 27 28 30 30 27 25 24 22 22 20 20 19
31 30 30 30 31 30 29 29 27 25 25 25 25 26 26 26 23 20 18 17 15 17 19 21 22 23 25 27 27 27 28 29 29 28 29 29 26 25 22 21 23 25 23
33 32 32 32 33 31 31 32 32 33 29 28 28 28 29 28 26 22 19 18 18 19 20 21 22 24 26 24 26 28 31 30 30 29 29 30 29 26 24 22 23 25 26
34 34 34 33 33 33 33 34 33 35 31 30 31 31 31 30 29 26 23 21 20 21 21 21 22 24 25 23 26 28 34 32 31 29 29 29 29 28 26 26 25 23 25
36 36 35 35 34 34 35 35 37 35 36 36 35 34 33 32 30 28 27 25 24 23 23 23 23 23 25 24 23 25 28 31 28 27 30 31 31 30 30 29 28 28 29
37 37 37 37 36 36 36 36 37 38 41 40 40 35 36 35 33 31 30 28 26 24 24 24 23 25 25 27 26 26 28 27 30 32 28 31 33 34 33 33 32 32 29
39 40 40 40 39 39 39 38 40 42 41 43 43 42 38 38 35 33 32 31 30 28 27 26 26 26 26 27 27 28 29 31 32 35 38 31 30 32 34 35 33 33 32
41 43 43 43 43 42 42 41 42 43 45 45 44 44 41 37 37 34 32 32 31 30 29 28 27 28 28 29 29 29 30 31 31 33 36 37 38 36 34 33 35 35 32
Wind_Direction
58 56 51 40 47 60 66 64 51 34 26 34 35 36 37 36 36 28 19 17 13 9 15 21 29 29 15 350 346 344 351 359 14 21 20 2 6 340 44 73 66 63 66
70 63 54 37 40 50 55 58 53 41 25 17 23 27 30 33 34 25 0 1 6 10 14 20 29 26 26 14 2 1 2 9 17 11 6 8 358 347 43 78 74 67 60
68 64 57 45 34 32 41 40 37 37 34 23 14 14 18 23 22 32 18 353 359 10 20 22 25 29 24 20 11 5 7 16 19 11 4 2 353 13 36 70 68 68 67
64 60 54 44 39 27 20 17 21 17 19 19 8 2 2 5 15 20 19 5 352 357 7 17 13 18 23 22 18 13 11 13 14 357 340 358 332 9 28 70 71 65 66
61 58 53 47 39 28 15 1 354 355 354 358 358 357 358 353 355 4 1 350 357 352 1 10 6 359 1 12 20 18 12 6 6 338 323 323 327 349 12 42 53 54 53
46 48 51 42 29 20 10 358 349 342 334 334 340 343 349 351 343 340 342 338 5 356 353 357 3 347 334 337 358 18 7 342 305 289 318 305 306 334 6 9 30 47 52
44 37 35 28 16 357 343 336 333 330 327 322 320 326 329 332 333 330 326 330 342 350 359 350 344 345 329 315 323 349 359 337 313 315 340 325 307 329 32 41 52 56 57
54 43 30 23 14 3 346 329 321 319 318 317 314 312 315 315 316 318 318 316 321 327 338 345 341 334 328 317 302 322 335 335 324 338 328 319 332 319 36 61 77 60 40
41 36 20 12 2 354 345 333 322 314 310 308 307 307 307 307 304 304 308 312 313 314 318 321 328 334 332 318 303 308 310 318 324 337 321 317 331 342 357 45 63 46 26
38 26 20 10 1 348 339 334 327 318 310 305 303 302 301 302 302 302 299 301 304 308 310 311 315 324 325 327 318 306 304 308 310 317 316 311 316 9 44 28 35 29 16
22 16 8 2 357 352 344 334 324 318 314 308 301 298 298 300 301 299 299 299 298 298 301 306 310 313 314 316 318 318 312 303 303 305 302 303 306 303 303 310 325 333 345
5 360 1 359 352 348 341 336 330 318 312 309 306 302 298 297 297 298 298 297 297 297 294 296 300 304 305 306 305 311 311 307 301 297 296 297 296 295 292 289 291 301 311
352 339 342 342 342 341 339 337 327 319 318 313 309 305 302 298 295 294 293 293 293 292 291 291 290 294 296 300 298 301 305 306 301 295 292 288 288 290 290 296 294 294 296
347 334 324 323 327 331 329 329 325 322 317 314 311 310 307 304 300 294 292 290 289 289 289 288 287 288 290 290 290 289 293 298 299 294 290 285 283 286 289 292 296 296 295
307 312 315 320 322 327 327 326 325 327 326 323 316 312 312 309 305 301 295 293 289 288 287 285 286 285 286 286 286 285 285 287 290 291 291 289 286 284 287 288 294 295 294
294 300 297 308 316 314 311 312 314 319 323 323 327 326 321 314 308 303 301 296 292 289 286 286 283 284 285 284 283 283 282 282 284 286 282 286 287 288 287 287 289 293 294
303 295 282 306 313 309 307 306 306 306 308 311 312 314 316 319 318 315 309 301 296 295 292 289 284 284 285 285 283 282 281 281 281 282 285 279 282 287 285 287 290 294 296
316 309 303 300 291 297 299 299 300 300 301 301 304 305 305 307 309 309 308 307 303 297 294 291 288 284 282 282 282 281 280 280 279 278 281 281 282 282 279 281 287 292 294
326 318 312 310 304 299 297 297 296 296 296 297 298 299 300 300 301 301 302 304 303 300 297 293 290 288 284 282 281 281 282 281 279 278 277 280 280 280 278 276 282 290 295
330 328 323 318 313 307 301 299 299 297 296 296 296 296 297 296 297 296 297 299 301 298 296 295 291 289 287 285 283 281 282 281 281 280 279 278 278 278 276 274 280 285 288
330 328 327 322 317 312 304 299 297 294 297 296 296 295 294 294 293 292 291 292 295 294 294 294 293 290 288 287 285 283 282 281 279 279 278 278 277 277 274 272 275 282 287
330 328 326 324 321 317 309 302 299 295 299 298 296 295 293 291 289 287 286 286 288 290 291 291 290 290 289 290 286 285 282 283 278 277 278 277 275 276 274 273 274 276 278
329 327 325 323 321 319 316 309 303 299 296 295 296 294 292 290 287 285 283 282 283 285 285 286 287 287 287 290 287 285 285 281 286 283 278 275 274 274 275 273 273 274 277
326 326 324 322 319 318 317 313 309 301 296 296 294 293 291 289 286 281 279 279 279 280 281 283 285 285 286 284 288 285 282 288 286 285 285 281 277 274 274 273 274 273 273
325 324 321 319 319 317 315 312 309 303 301 297 296 291 290 286 285 282 277 276 276 276 278 279 281 282 283 284 283 286 284 284 283 281 282 284 285 280 276 274 275 273 273
325 323 322 319 316 315 313 310 308 306 303 299 296 294 287 286 281 280 276 274 274 275 275 277 279 280 281 282 283 283 282 283 283 282 280 281 282 282 281 278 274 274 273